Simultaneous Nadir Overpasses (SNOs) Predictions

Prediction of SNOs between GOES-15 and TERRA Satellite Orbit:

Table of predicted SNOs for the next 14.0 days since TLE Epoch: 2/28/2015
Index Date Time (GOES-15) GOES-15 Lat,Lon TERRA Lat,Lon Distance(km) Time Diff (sec)
1 02/28/2015 07:22:07 -0.05,-135.39 0.37,-133.38 227.81 80
2 02/28/2015 19:43:22 0.05,-135.42 0.71,-138.54 354.37 80
3 03/02/2015 19:31:08 0.04,-135.42 0.04,-135.58 17.44 80
4 03/04/2015 19:21:32 0.04,-135.41 -0.53,-132.59 320.06 80
5 03/05/2015 07:42:55 -0.04,-135.38 -0.58,-137.78 273.59 80
6 03/07/2015 07:28:00 -0.04,-135.36 0.10,-134.81 63.27 80
7 03/09/2015 07:15:43 -0.04,-135.34 0.68,-131.82 399.66 80
8 03/09/2015 19:36:57 0.04,-135.36 0.37,-136.98 183.54 80
9 03/11/2015 19:27:20 0.04,-135.34 -0.26,-134.00 152.19 80
10 03/12/2015 07:48:42 -0.03,-135.30 -0.88,-139.18 441.02 80
11 03/13/2015 19:15:04 0.03,-135.30 -0.91,-131.02 487.25 80




NCC Satellite Simultaneous Nadir Overpasses (SNOs) Prediction Service
